"Time","Value","Approval","myLocation"
"2023-03-30 00:00",9.279,"Approved","OW422"
"2023-03-30 01:00",9.27,"Approved","OW422"
"2023-03-30 02:00",9.263,"Approved","OW422"
"2023-03-30 03:00",9.258,"Approved","OW422"
"2023-03-30 04:00",9.255,"Approved","OW422"
"2023-03-30 05:00",9.25,"Approved","OW422"
"2023-03-30 06:00",9.251,"Approved","OW422"
"2023-03-30 07:00",9.361,"Approved","OW422"
"2023-03-30 08:00",9.415,"Approved","OW422"
"2023-03-30 09:00",9.341,"Approved","OW422"
"2023-03-30 10:00",9.306,"Approved","OW422"
"2023-03-30 11:00",9.29,"Approved","OW422"
"2023-03-30 12:00",9.277,"Approved","OW422"
"2023-03-30 13:00",9.27,"Approved","OW422"
"2023-03-30 14:00",9.259,"Approved","OW422"
"2023-03-30 15:00",9.255,"Approved","OW422"
"2023-03-30 16:00",9.365,"Approved","OW422"
"2023-03-30 17:00",9.417,"Approved","OW422"
"2023-03-30 18:00",9.34,"Approved","OW422"
"2023-03-30 19:00",9.313,"Approved","OW422"
"2023-03-30 20:00",9.302,"Approved","OW422"
"2023-03-30 21:00",9.292,"Approved","OW422"
"2023-03-30 22:00",9.286,"Approved","OW422"
"2023-03-30 23:00",9.279,"Approved","OW422"
"2023-03-31 00:00",9.271,"Approved","OW422"
"2023-03-31 01:00",9.267,"Approved","OW422"
"2023-03-31 02:00",9.262,"Approved","OW422"
"2023-03-31 03:00",9.258,"Approved","OW422"
"2023-03-31 04:00",9.252,"Approved","OW422"
"2023-03-31 05:00",9.342,"Approved","OW422"
"2023-03-31 06:00",9.404,"Approved","OW422"
"2023-03-31 07:00",9.342,"Approved","OW422"
"2023-03-31 08:00",9.31,"Approved","OW422"
"2023-03-31 09:00",9.296,"Approved","OW422"
"2023-03-31 10:00",9.284,"Approved","OW422"
"2023-03-31 11:00",9.277,"Approved","OW422"
"2023-03-31 12:00",9.27,"Approved","OW422"
"2023-03-31 13:00",9.262,"Approved","OW422"
"2023-03-31 14:00",9.318,"Approved","OW422"
"2023-03-31 15:00",9.402,"Approved","OW422"
"2023-03-31 16:00",9.382,"Approved","OW422"
"2023-03-31 17:00",9.32,"Approved","OW422"
"2023-03-31 18:00",9.299,"Approved","OW422"
"2023-03-31 19:00",9.285,"Approved","OW422"
"2023-03-31 20:00",9.274,"Approved","OW422"
"2023-03-31 21:00",9.266,"Approved","OW422"
"2023-03-31 22:00",9.258,"Approved","OW422"
"2023-03-31 23:00",9.246,"Approved","OW422"
"2023-04-01 00:00",9.239,"Approved","OW422"
"2023-04-01 01:00",9.234,"Approved","OW422"
"2023-04-01 02:00",9.228,"Approved","OW422"
"2023-04-01 03:00",9.356,"Approved","OW422"
"2023-04-01 04:00",9.363,"Approved","OW422"
"2023-04-01 05:00",9.299,"Approved","OW422"
"2023-04-01 06:00",9.28,"Approved","OW422"
"2023-04-01 07:00",9.271,"Approved","OW422"
"2023-04-01 08:00",9.259,"Approved","OW422"
"2023-04-01 09:00",9.256,"Approved","OW422"
"2023-04-01 10:00",9.247,"Approved","OW422"
"2023-04-01 11:00",9.243,"Approved","OW422"
"2023-04-01 12:00",9.266,"Approved","OW422"
"2023-04-01 13:00",9.377,"Approved","OW422"
"2023-04-01 14:00",9.392,"Approved","OW422"
"2023-04-01 15:00",9.313,"Approved","OW422"
"2023-04-01 16:00",9.294,"Approved","OW422"
"2023-04-01 17:00",9.278,"Approved","OW422"
"2023-04-01 18:00",9.27,"Approved","OW422"
"2023-04-01 19:00",9.262,"Approved","OW422"
"2023-04-01 20:00",9.26,"Approved","OW422"
"2023-04-01 21:00",9.258,"Approved","OW422"
"2023-04-01 22:00",9.252,"Approved","OW422"
"2023-04-01 23:00",9.363,"Approved","OW422"
"2023-04-02 00:00",9.415,"Approved","OW422"
"2023-04-02 01:00",9.323,"Approved","OW422"
"2023-04-02 02:00",9.297,"Approved","OW422"
"2023-04-02 03:00",9.284,"Approved","OW422"
"2023-04-02 04:00",9.272,"Approved","OW422"
"2023-04-02 05:00",9.266,"Approved","OW422"
"2023-04-02 06:00",9.263,"Approved","OW422"
"2023-04-02 07:00",9.258,"Approved","OW422"
"2023-04-02 08:00",9.251,"Approved","OW422"
"2023-04-02 09:00",9.246,"Approved","OW422"
"2023-04-02 10:00",9.242,"Approved","OW422"
"2023-04-02 11:00",9.35,"Approved","OW422"
"2023-04-02 12:00",9.402,"Approved","OW422"
"2023-04-02 13:00",9.336,"Approved","OW422"
"2023-04-02 14:00",9.302,"Approved","OW422"
"2023-04-02 15:00",9.286,"Approved","OW422"
"2023-04-02 16:00",9.274,"Approved","OW422"
"2023-04-02 17:00",9.268,"Approved","OW422"
"2023-04-02 18:00",9.258,"Approved","OW422"
"2023-04-02 19:00",9.255,"Approved","OW422"
"2023-04-02 20:00",9.322,"Approved","OW422"
"2023-04-02 21:00",9.399,"Approved","OW422"
"2023-04-02 22:00",9.364,"Approved","OW422"
"2023-04-02 23:00",9.316,"Approved","OW422"
"2023-04-03 00:00",9.299,"Approved","OW422"
"2023-04-03 01:00",9.287,"Approved","OW422"
"2023-04-03 02:00",9.277,"Approved","OW422"
"2023-04-03 03:00",9.271,"Approved","OW422"
"2023-04-03 04:00",9.263,"Approved","OW422"
"2023-04-03 05:00",9.259,"Approved","OW422"
"2023-04-03 06:00",9.254,"Approved","OW422"
"2023-04-03 07:00",9.248,"Approved","OW422"
"2023-04-03 08:00",9.245,"Approved","OW422"
"2023-04-03 09:00",9.245,"Approved","OW422"
"2023-04-03 10:00",9.266,"Approved","OW422"
"2023-04-03 11:00",9.272,"Approved","OW422"
"2023-04-03 12:00",9.259,"Approved","OW422"
"2023-04-03 13:00",9.251,"Approved","OW422"
"2023-04-03 14:00",9.244,"Approved","OW422"
"2023-04-03 15:00",9.238,"Approved","OW422"
"2023-04-03 16:00",9.232,"Approved","OW422"
"2023-04-03 17:00",9.229,"Approved","OW422"
"2023-04-03 18:00",9.242,"Approved","OW422"
"2023-04-03 19:00",9.258,"Approved","OW422"
"2023-04-03 20:00",9.257,"Approved","OW422"
"2023-04-03 21:00",9.253,"Approved","OW422"
"2023-04-03 22:00",9.25,"Approved","OW422"
"2023-04-03 23:00",9.242,"Approved","OW422"
"2023-04-04 00:00",9.242,"Approved","OW422"
"2023-04-04 01:00",9.239,"Approved","OW422"
"2023-04-04 02:00",9.235,"Approved","OW422"
"2023-04-04 03:00",9.233,"Approved","OW422"
"2023-04-04 04:00",9.233,"Approved","OW422"
"2023-04-04 05:00",9.229,"Approved","OW422"
"2023-04-04 06:00",9.227,"Approved","OW422"
"2023-04-04 07:00",9.225,"Approved","OW422"
"2023-04-04 08:00",9.243,"Approved","OW422"
"2023-04-04 09:00",9.257,"Approved","OW422"
"2023-04-04 10:00",9.252,"Approved","OW422"
"2023-04-04 11:00",9.246,"Approved","OW422"
"2023-04-04 12:00",9.239,"Approved","OW422"
"2023-04-04 13:00",9.235,"Approved","OW422"
"2023-04-04 14:00",9.229,"Approved","OW422"
"2023-04-04 15:00",9.229,"Approved","OW422"
"2023-04-04 16:00",9.225,"Approved","OW422"
"2023-04-04 17:00",9.222,"Approved","OW422"
"2023-04-04 18:00",9.239,"Approved","OW422"
"2023-04-04 19:00",9.254,"Approved","OW422"
"2023-04-04 20:00",9.248,"Approved","OW422"
"2023-04-04 21:00",9.24,"Approved","OW422"
"2023-04-04 22:00",9.234,"Approved","OW422"
"2023-04-04 23:00",9.23,"Approved","OW422"
"2023-04-05 00:00",9.227,"Approved","OW422"
"2023-04-05 01:00",9.224,"Approved","OW422"
"2023-04-05 02:00",9.219,"Approved","OW422"
"2023-04-05 03:00",9.213,"Approved","OW422"
"2023-04-05 04:00",9.213,"Approved","OW422"
"2023-04-05 05:00",9.21,"Approved","OW422"
"2023-04-05 06:00",9.208,"Approved","OW422"
"2023-04-05 07:00",9.206,"Approved","OW422"
"2023-04-05 08:00",9.224,"Approved","OW422"
"2023-04-05 09:00",9.232,"Approved","OW422"
"2023-04-05 10:00",9.222,"Approved","OW422"
"2023-04-05 11:00",9.212,"Approved","OW422"
"2023-04-05 12:00",9.209,"Approved","OW422"
"2023-04-05 13:00",9.204,"Approved","OW422"
"2023-04-05 14:00",9.199,"Approved","OW422"
"2023-04-05 15:00",9.196,"Approved","OW422"
"2023-04-05 16:00",9.193,"Approved","OW422"
"2023-04-05 17:00",9.203,"Approved","OW422"
"2023-04-05 18:00",9.222,"Approved","OW422"
"2023-04-05 19:00",9.219,"Approved","OW422"
"2023-04-05 20:00",9.215,"Approved","OW422"
"2023-04-05 21:00",9.21,"Approved","OW422"
"2023-04-05 22:00",9.207,"Approved","OW422"
"2023-04-05 23:00",9.203,"Approved","OW422"
"2023-04-06 00:00",9.197,"Approved","OW422"
"2023-04-06 01:00",9.196,"Approved","OW422"
"2023-04-06 02:00",9.189,"Approved","OW422"
"2023-04-06 03:00",9.188,"Approved","OW422"
"2023-04-06 04:00",9.186,"Approved","OW422"
"2023-04-06 05:00",9.182,"Approved","OW422"
"2023-04-06 06:00",9.182,"Approved","OW422"
"2023-04-06 07:00",9.201,"Approved","OW422"
"2023-04-06 08:00",9.213,"Approved","OW422"
"2023-04-06 09:00",9.204,"Approved","OW422"
"2023-04-06 10:00",9.197,"Approved","OW422"
"2023-04-06 11:00",9.194,"Approved","OW422"
"2023-04-06 12:00",9.187,"Approved","OW422"
"2023-04-06 13:00",9.183,"Approved","OW422"
"2023-04-06 14:00",9.177,"Approved","OW422"
"2023-04-06 15:00",9.171,"Approved","OW422"
"2023-04-06 16:00",9.177,"Approved","OW422"
"2023-04-06 17:00",9.192,"Approved","OW422"
"2023-04-06 18:00",9.193,"Approved","OW422"
"2023-04-06 19:00",9.189,"Approved","OW422"
"2023-04-06 20:00",9.186,"Approved","OW422"
"2023-04-06 21:00",9.184,"Approved","OW422"
"2023-04-06 22:00",9.18,"Approved","OW422"
"2023-04-06 23:00",9.176,"Approved","OW422"
"2023-04-07 00:00",9.17,"Approved","OW422"
"2023-04-07 01:00",9.166,"Approved","OW422"
"2023-04-07 02:00",9.162,"Approved","OW422"
"2023-04-07 03:00",9.163,"Approved","OW422"
"2023-04-07 04:00",9.158,"Approved","OW422"
"2023-04-07 05:00",9.158,"Approved","OW422"
"2023-04-07 06:00",9.17,"Approved","OW422"
"2023-04-07 07:00",9.188,"Approved","OW422"
"2023-04-07 08:00",9.186,"Approved","OW422"
"2023-04-07 09:00",9.178,"Approved","OW422"
"2023-04-07 10:00",9.169,"Approved","OW422"
"2023-04-07 11:00",9.167,"Approved","OW422"
"2023-04-07 12:00",9.163,"Approved","OW422"
"2023-04-07 13:00",9.159,"Approved","OW422"
"2023-04-07 14:00",9.165,"Approved","OW422"
"2023-04-07 15:00",9.179,"Approved","OW422"
"2023-04-07 16:00",9.183,"Approved","OW422"
"2023-04-07 17:00",9.175,"Approved","OW422"
"2023-04-07 18:00",9.172,"Approved","OW422"
"2023-04-07 19:00",9.171,"Approved","OW422"
"2023-04-07 20:00",9.172,"Approved","OW422"
"2023-04-07 21:00",9.172,"Approved","OW422"
"2023-04-07 22:00",9.166,"Approved","OW422"
"2023-04-07 23:00",9.163,"Approved","OW422"
"2023-04-08 00:00",9.163,"Approved","OW422"
"2023-04-08 01:00",9.16,"Approved","OW422"
"2023-04-08 02:00",9.178,"Approved","OW422"
"2023-04-08 03:00",9.186,"Approved","OW422"
"2023-04-08 04:00",9.179,"Approved","OW422"
"2023-04-08 05:00",9.174,"Approved","OW422"
"2023-04-08 06:00",9.17,"Approved","OW422"
"2023-04-08 07:00",9.17,"Approved","OW422"
"2023-04-08 08:00",9.17,"Approved","OW422"
"2023-04-08 09:00",9.165,"Approved","OW422"
"2023-04-08 10:00",9.164,"Approved","OW422"
"2023-04-08 11:00",9.164,"Approved","OW422"
"2023-04-08 12:00",9.181,"Approved","OW422"
"2023-04-08 13:00",9.192,"Approved","OW422"
"2023-04-08 14:00",9.186,"Approved","OW422"
"2023-04-08 15:00",9.177,"Approved","OW422"
"2023-04-08 16:00",9.167,"Approved","OW422"
"2023-04-08 17:00",9.168,"Approved","OW422"
"2023-04-08 18:00",9.164,"Approved","OW422"
"2023-04-08 19:00",9.164,"Approved","OW422"
"2023-04-08 20:00",9.165,"Approved","OW422"
"2023-04-08 21:00",9.174,"Approved","OW422"
"2023-04-08 22:00",9.19,"Approved","OW422"
"2023-04-08 23:00",9.194,"Approved","OW422"
"2023-04-09 00:00",9.185,"Approved","OW422"
"2023-04-09 01:00",9.171,"Approved","OW422"
"2023-04-09 02:00",9.168,"Approved","OW422"
"2023-04-09 03:00",9.159,"Approved","OW422"
"2023-04-09 04:00",9.153,"Approved","OW422"
"2023-04-09 05:00",9.148,"Approved","OW422"
"2023-04-09 06:00",9.148,"Approved","OW422"
"2023-04-09 07:00",9.143,"Approved","OW422"
"2023-04-09 08:00",9.14,"Approved","OW422"
"2023-04-09 09:00",9.138,"Approved","OW422"
"2023-04-09 10:00",9.145,"Approved","OW422"
"2023-04-09 11:00",9.164,"Approved","OW422"
"2023-04-09 12:00",9.156,"Approved","OW422"
"2023-04-09 13:00",9.146,"Approved","OW422"
"2023-04-09 14:00",9.135,"Approved","OW422"
"2023-04-09 15:00",9.135,"Approved","OW422"
"2023-04-09 16:00",9.133,"Approved","OW422"
"2023-04-09 17:00",9.128,"Approved","OW422"
"2023-04-09 18:00",9.13,"Approved","OW422"
"2023-04-09 19:00",9.143,"Approved","OW422"
"2023-04-09 20:00",9.163,"Approved","OW422"
"2023-04-09 21:00",9.17,"Approved","OW422"
"2023-04-09 22:00",9.164,"Approved","OW422"
"2023-04-09 23:00",9.163,"Approved","OW422"
"2023-04-10 00:00",9.161,"Approved","OW422"
"2023-04-10 01:00",9.159,"Approved","OW422"
"2023-04-10 02:00",9.154,"Approved","OW422"
"2023-04-10 03:00",9.151,"Approved","OW422"
"2023-04-10 04:00",9.148,"Approved","OW422"
"2023-04-10 05:00",9.143,"Approved","OW422"
"2023-04-10 06:00",9.141,"Approved","OW422"
"2023-04-10 07:00",9.136,"Approved","OW422"
"2023-04-10 08:00",9.133,"Approved","OW422"
"2023-04-10 09:00",9.148,"Approved","OW422"
"2023-04-10 10:00",9.16,"Approved","OW422"
"2023-04-10 11:00",9.15,"Approved","OW422"
"2023-04-10 12:00",9.141,"Approved","OW422"
"2023-04-10 13:00",9.13,"Approved","OW422"
"2023-04-10 14:00",9.126,"Approved","OW422"
"2023-04-10 15:00",9.118,"Approved","OW422"
"2023-04-10 16:00",9.113,"Approved","OW422"
"2023-04-10 17:00",9.106,"Approved","OW422"
"2023-04-10 18:00",9.122,"Approved","OW422"
"2023-04-10 19:00",9.133,"Approved","OW422"
"2023-04-10 20:00",9.126,"Approved","OW422"
"2023-04-10 21:00",9.115,"Approved","OW422"
"2023-04-10 22:00",9.108,"Approved","OW422"
"2023-04-10 23:00",9.103,"Approved","OW422"
"2023-04-11 00:00",9.101,"Approved","OW422"
"2023-04-11 01:00",9.097,"Approved","OW422"
"2023-04-11 02:00",9.093,"Approved","OW422"
"2023-04-11 03:00",9.092,"Approved","OW422"
"2023-04-11 04:00",9.09,"Approved","OW422"
"2023-04-11 05:00",9.089,"Approved","OW422"
"2023-04-11 06:00",9.087,"Approved","OW422"
"2023-04-11 07:00",9.09,"Approved","OW422"
"2023-04-11 08:00",9.107,"Approved","OW422"
"2023-04-11 09:00",9.121,"Approved","OW422"
"2023-04-11 10:00",9.111,"Approved","OW422"
"2023-04-11 11:00",9.108,"Approved","OW422"
"2023-04-11 12:00",9.104,"Approved","OW422"
"2023-04-11 13:00",9.102,"Approved","OW422"
"2023-04-11 14:00",9.101,"Approved","OW422"
"2023-04-11 15:00",9.1,"Approved","OW422"
"2023-04-11 16:00",9.094,"Approved","OW422"
"2023-04-11 17:00",9.106,"Approved","OW422"
"2023-04-11 18:00",9.123,"Approved","OW422"
"2023-04-11 19:00",9.125,"Approved","OW422"
"2023-04-11 20:00",9.12,"Approved","OW422"
"2023-04-11 21:00",9.117,"Approved","OW422"
"2023-04-11 22:00",9.116,"Approved","OW422"
"2023-04-11 23:00",9.113,"Approved","OW422"
"2023-04-12 00:00",9.109,"Approved","OW422"
"2023-04-12 01:00",9.104,"Approved","OW422"
"2023-04-12 02:00",9.098,"Approved","OW422"
"2023-04-12 03:00",9.096,"Approved","OW422"
"2023-04-12 04:00",9.095,"Approved","OW422"
"2023-04-12 05:00",9.089,"Approved","OW422"
"2023-04-12 06:00",9.088,"Approved","OW422"
"2023-04-12 07:00",9.097,"Approved","OW422"
"2023-04-12 08:00",9.113,"Approved","OW422"
"2023-04-12 09:00",9.114,"Approved","OW422"
"2023-04-12 10:00",9.107,"Approved","OW422"
"2023-04-12 11:00",9.103,"Approved","OW422"
"2023-04-12 12:00",9.096,"Approved","OW422"
"2023-04-12 13:00",9.092,"Approved","OW422"
"2023-04-12 14:00",9.088,"Approved","OW422"
"2023-04-12 15:00",9.082,"Approved","OW422"
"2023-04-12 16:00",9.076,"Approved","OW422"
"2023-04-12 17:00",9.08,"Approved","OW422"
"2023-04-12 18:00",9.097,"Approved","OW422"
"2023-04-12 19:00",9.099,"Approved","OW422"
"2023-04-12 20:00",9.092,"Approved","OW422"
"2023-04-12 21:00",9.09,"Approved","OW422"
"2023-04-12 22:00",9.085,"Approved","OW422"
"2023-04-12 23:00",9.079,"Approved","OW422"
"2023-04-13 00:00",9.075,"Approved","OW422"
"2023-04-13 01:00",9.071,"Approved","OW422"
"2023-04-13 02:00",9.064,"Approved","OW422"
"2023-04-13 03:00",9.062,"Approved","OW422"
"2023-04-13 04:00",9.059,"Approved","OW422"
"2023-04-13 05:00",9.057,"Approved","OW422"
"2023-04-13 06:00",9.053,"Approved","OW422"
"2023-04-13 07:00",9.054,"Approved","OW422"
"2023-04-13 08:00",9.074,"Approved","OW422"
"2023-04-13 09:00",9.086,"Approved","OW422"
"2023-04-13 10:00",9.077,"Approved","OW422"
"2023-04-13 11:00",9.07,"Approved","OW422"
"2023-04-13 12:00",9.067,"Approved","OW422"
"2023-04-13 13:00",9.058,"Approved","OW422"
"2023-04-13 14:00",9.059,"Approved","OW422"
"2023-04-13 15:00",9.053,"Approved","OW422"
"2023-04-13 16:00",9.049,"Approved","OW422"
"2023-04-13 17:00",9.051,"Approved","OW422"
"2023-04-13 18:00",9.07,"Approved","OW422"
"2023-04-13 19:00",9.083,"Approved","OW422"
"2023-04-13 20:00",9.076,"Approved","OW422"
"2023-04-13 21:00",9.068,"Approved","OW422"
"2023-04-13 22:00",9.065,"Approved","OW422"
"2023-04-13 23:00",9.064,"Approved","OW422"
"2023-04-14 00:00",9.059,"Approved","OW422"
"2023-04-14 01:00",9.053,"Approved","OW422"
"2023-04-14 02:00",9.048,"Approved","OW422"
"2023-04-14 03:00",9.05,"Approved","OW422"
"2023-04-14 04:00",9.043,"Approved","OW422"
"2023-04-14 05:00",9.044,"Approved","OW422"
"2023-04-14 06:00",9.043,"Approved","OW422"
"2023-04-14 07:00",9.04,"Approved","OW422"
"2023-04-14 08:00",9.06,"Approved","OW422"
"2023-04-14 09:00",9.074,"Approved","OW422"
"2023-04-14 10:00",9.061,"Approved","OW422"
"2023-04-14 11:00",9.056,"Approved","OW422"
"2023-04-14 12:00",9.052,"Approved","OW422"
"2023-04-14 13:00",9.044,"Approved","OW422"
"2023-04-14 14:00",9.042,"Approved","OW422"
"2023-04-14 15:00",9.039,"Approved","OW422"
"2023-04-14 16:00",9.032,"Approved","OW422"
"2023-04-14 17:00",9.03,"Approved","OW422"
"2023-04-14 18:00",9.05,"Approved","OW422"
"2023-04-14 19:00",9.065,"Approved","OW422"
"2023-04-14 20:00",9.057,"Approved","OW422"
"2023-04-14 21:00",9.053,"Approved","OW422"
"2023-04-14 22:00",9.05,"Approved","OW422"
"2023-04-14 23:00",9.044,"Approved","OW422"
"2023-04-15 00:00",9.04,"Approved","OW422"
"2023-04-15 01:00",9.037,"Approved","OW422"
"2023-04-15 02:00",9.032,"Approved","OW422"
"2023-04-15 03:00",9.028,"Approved","OW422"
"2023-04-15 04:00",9.027,"Approved","OW422"
"2023-04-15 05:00",9.026,"Approved","OW422"
"2023-04-15 06:00",9.024,"Approved","OW422"
"2023-04-15 07:00",9.023,"Approved","OW422"
"2023-04-15 08:00",9.029,"Approved","OW422"
"2023-04-15 09:00",9.046,"Approved","OW422"
"2023-04-15 10:00",9.05,"Approved","OW422"
"2023-04-15 11:00",9.038,"Approved","OW422"
"2023-04-15 12:00",9.036,"Approved","OW422"
"2023-04-15 13:00",9.029,"Approved","OW422"
"2023-04-15 14:00",9.026,"Approved","OW422"
"2023-04-15 15:00",9.022,"Approved","OW422"
"2023-04-15 16:00",9.018,"Approved","OW422"
"2023-04-15 17:00",9.014,"Approved","OW422"
"2023-04-15 18:00",9.028,"Approved","OW422"
"2023-04-15 19:00",9.043,"Approved","OW422"
"2023-04-15 20:00",9.034,"Approved","OW422"
"2023-04-15 21:00",9.029,"Approved","OW422"
"2023-04-15 22:00",9.023,"Approved","OW422"
"2023-04-15 23:00",9.017,"Approved","OW422"
"2023-04-16 00:00",9.012,"Approved","OW422"
"2023-04-16 01:00",9.007,"Approved","OW422"
"2023-04-16 02:00",9.003,"Approved","OW422"
"2023-04-16 03:00",8.998,"Approved","OW422"
"2023-04-16 04:00",8.993,"Approved","OW422"
"2023-04-16 05:00",8.985,"Approved","OW422"
"2023-04-16 06:00",8.983,"Approved","OW422"
"2023-04-16 07:00",8.977,"Approved","OW422"
"2023-04-16 08:00",8.989,"Approved","OW422"
"2023-04-16 09:00",9,"Approved","OW422"
"2023-04-16 10:00",8.999,"Approved","OW422"
"2023-04-16 11:00",8.986,"Approved","OW422"
"2023-04-16 12:00",8.977,"Approved","OW422"
"2023-04-16 13:00",8.972,"Approved","OW422"
"2023-04-16 14:00",8.972,"Approved","OW422"
"2023-04-16 15:00",8.967,"Approved","OW422"
"2023-04-16 16:00",8.961,"Approved","OW422"
"2023-04-16 17:00",8.973,"Approved","OW422"
"2023-04-16 18:00",8.995,"Approved","OW422"
"2023-04-16 19:00",8.994,"Approved","OW422"
"2023-04-16 20:00",8.99,"Approved","OW422"
"2023-04-16 21:00",8.985,"Approved","OW422"
"2023-04-16 22:00",8.986,"Approved","OW422"
"2023-04-16 23:00",8.98,"Approved","OW422"
"2023-04-17 00:00",8.978,"Approved","OW422"
"2023-04-17 01:00",8.978,"Approved","OW422"
"2023-04-17 02:00",8.975,"Approved","OW422"
"2023-04-17 03:00",8.971,"Approved","OW422"
"2023-04-17 04:00",8.969,"Approved","OW422"
"2023-04-17 05:00",8.968,"Approved","OW422"
"2023-04-17 06:00",8.963,"Approved","OW422"
"2023-04-17 07:00",8.969,"Approved","OW422"
"2023-04-17 08:00",8.975,"Approved","OW422"
"2023-04-17 09:00",8.979,"Approved","OW422"
"2023-04-17 10:00",8.983,"Approved","OW422"
"2023-04-17 11:00",8.987,"Approved","OW422"
"2023-04-17 12:00",8.984,"Approved","OW422"
"2023-04-17 13:00",8.968,"Approved","OW422"
"2023-04-17 14:00",8.961,"Approved","OW422"
"2023-04-17 15:00",8.952,"Approved","OW422"
"2023-04-17 16:00",8.943,"Approved","OW422"
"2023-04-17 17:00",8.94,"Approved","OW422"
"2023-04-17 18:00",8.936,"Approved","OW422"
"2023-04-17 19:00",8.938,"Approved","OW422"
"2023-04-17 20:00",8.948,"Approved","OW422"
"2023-04-17 21:00",8.953,"Approved","OW422"
"2023-04-17 22:00",8.962,"Approved","OW422"
"2023-04-17 23:00",8.967,"Approved","OW422"
"2023-04-18 00:00",8.959,"Approved","OW422"
"2023-04-18 01:00",8.953,"Approved","OW422"
"2023-04-18 02:00",8.948,"Approved","OW422"
"2023-04-18 03:00",8.944,"Approved","OW422"
"2023-04-18 04:00",8.942,"Approved","OW422"
"2023-04-18 05:00",8.94,"Approved","OW422"
"2023-04-18 06:00",8.939,"Approved","OW422"
"2023-04-18 07:00",8.939,"Approved","OW422"
"2023-04-18 08:00",8.937,"Approved","OW422"
"2023-04-18 09:00",8.936,"Approved","OW422"
"2023-04-18 10:00",8.935,"Approved","OW422"
"2023-04-18 11:00",8.946,"Approved","OW422"
"2023-04-18 12:00",8.959,"Approved","OW422"
"2023-04-18 13:00",8.967,"Approved","OW422"
"2023-04-18 14:00",8.978,"Approved","OW422"
"2023-04-18 15:00",8.973,"Approved","OW422"
"2023-04-18 16:00",8.971,"Approved","OW422"
"2023-04-18 17:00",8.965,"Approved","OW422"
"2023-04-18 18:00",8.962,"Approved","OW422"
"2023-04-18 19:00",8.961,"Approved","OW422"
"2023-04-18 20:00",8.963,"Approved","OW422"
"2023-04-18 21:00",8.96,"Approved","OW422"
"2023-04-18 22:00",8.958,"Approved","OW422"
"2023-04-18 23:00",8.958,"Approved","OW422"
"2023-04-19 00:00",8.969,"Approved","OW422"
"2023-04-19 01:00",8.975,"Approved","OW422"
"2023-04-19 02:00",8.98,"Approved","OW422"
"2023-04-19 03:00",8.97,"Approved","OW422"
"2023-04-19 04:00",8.967,"Approved","OW422"
"2023-04-19 05:00",8.961,"Approved","OW422"
"2023-04-19 06:00",8.96,"Approved","OW422"
"2023-04-19 07:00",8.956,"Approved","OW422"
"2023-04-19 08:00",8.951,"Approved","OW422"
"2023-04-19 09:00",8.946,"Approved","OW422"
"2023-04-19 10:00",8.942,"Approved","OW422"
"2023-04-19 11:00",8.935,"Approved","OW422"
"2023-04-19 12:00",8.946,"Approved","OW422"
"2023-04-19 13:00",8.956,"Approved","OW422"
"2023-04-19 14:00",8.962,"Approved","OW422"
"2023-04-19 15:00",8.968,"Approved","OW422"
"2023-04-19 16:00",8.975,"Approved","OW422"
"2023-04-19 17:00",8.965,"Approved","OW422"
"2023-04-19 18:00",8.959,"Approved","OW422"
"2023-04-19 19:00",8.957,"Approved","OW422"
"2023-04-19 20:00",8.955,"Approved","OW422"
"2023-04-19 21:00",8.95,"Approved","OW422"
"2023-04-19 22:00",8.946,"Approved","OW422"
"2023-04-19 23:00",8.945,"Approved","OW422"
"2023-04-20 00:00",8.941,"Approved","OW422"
"2023-04-20 01:00",8.94,"Approved","OW422"
"2023-04-20 02:00",8.939,"Approved","OW422"
"2023-04-20 03:00",8.952,"Approved","OW422"
"2023-04-20 04:00",8.96,"Approved","OW422"
"2023-04-20 05:00",8.965,"Approved","OW422"
"2023-04-20 06:00",8.958,"Approved","OW422"
"2023-04-20 07:00",8.949,"Approved","OW422"
"2023-04-20 08:00",8.941,"Approved","OW422"
"2023-04-20 09:00",8.935,"Approved","OW422"
"2023-04-20 10:00",8.925,"Approved","OW422"
"2023-04-20 11:00",8.919,"Approved","OW422"
"2023-04-20 12:00",8.911,"Approved","OW422"
"2023-04-20 13:00",8.908,"Approved","OW422"
"2023-04-20 14:00",8.915,"Approved","OW422"
"2023-04-20 15:00",8.918,"Approved","OW422"
"2023-04-20 16:00",8.925,"Approved","OW422"
"2023-04-20 17:00",8.926,"Approved","OW422"
"2023-04-20 18:00",8.927,"Approved","OW422"
"2023-04-20 19:00",8.915,"Approved","OW422"
"2023-04-20 20:00",8.912,"Approved","OW422"
"2023-04-20 21:00",8.909,"Approved","OW422"
"2023-04-20 22:00",8.904,"Approved","OW422"
"2023-04-20 23:00",8.901,"Approved","OW422"
"2023-04-21 00:00",8.899,"Approved","OW422"
"2023-04-21 01:00",8.899,"Approved","OW422"
"2023-04-21 02:00",8.894,"Approved","OW422"
"2023-04-21 03:00",8.892,"Approved","OW422"
"2023-04-21 04:00",8.894,"Approved","OW422"